Volver al catálogo

GHGSAT-C3

ActivoCienciaSSO
NORAD 52737·PAYLOAD·🇨🇦 Canada

Lanzado May 25, 2022 desde Cape Canaveral Space Force Station

Loading…

Próximos Pases (próximas 24 horas)

TLE

ActualizadoSource: Space-Track

Época: Sep 14, 2026, 21:10 UTC

1 52737U 22057F   26257.88195135  .00005884  00000-0  17393-3 0  9993
2 52737  97.6728  47.0368 0006385 151.5889 208.5703 15.35328394239295

Sigue GHGSAT-C3 en tiempo real con AllMySat

Download on the App Store